TimeCDT,TemperatureF,Dew PointF,Humidity,Sea Level PressureIn,VisibilityMPH,Wind Direction,Wind SpeedMPH,Gust SpeedMPH,PrecipitationIn,Events,Conditions,WindDirDegrees,DateUTC
12:53 AM,73.0,66.9,81,30.02,10.0,NE,8.1,-,N/A,,Clear,40,2012-09-09 05:53:00
1:53 AM,71.1,64.0,78,30.02,10.0,NE,9.2,-,N/A,,Clear,50,2012-09-09 06:53:00
2:53 AM,68.0,63.0,84,30.02,10.0,NE,5.8,-,N/A,,Clear,40,2012-09-09 07:53:00
3:53 AM,66.9,62.1,84,30.02,10.0,NNE,5.8,-,N/A,,Clear,30,2012-09-09 08:53:00
4:53 AM,66.0,61.0,84,30.03,10.0,NNE,4.6,-,N/A,,Clear,20,2012-09-09 09:53:00
5:53 AM,66.0,60.1,81,30.04,10.0,NNE,4.6,-,N/A,,Clear,20,2012-09-09 10:53:00
6:53 AM,64.9,59.0,81,30.07,10.0,NNE,5.8,-,N/A,,Clear,20,2012-09-09 11:53:00
7:53 AM,68.0,59.0,73,30.09,10.0,NNE,8.1,-,N/A,,Clear,30,2012-09-09 12:53:00
8:53 AM,72.0,59.0,64,30.11,10.0,NE,10.4,-,N/A,,Clear,50,2012-09-09 13:53:00
9:53 AM,75.0,59.0,57,30.12,10.0,ENE,10.4,-,N/A,,Clear,60,2012-09-09 14:53:00
10:53 AM,79.0,57.9,48,30.12,10.0,NE,13.8,-,N/A,,Clear,40,2012-09-09 15:53:00
11:53 AM,80.1,55.9,43,30.11,10.0,NE,10.4,18.4,N/A,,Clear,40,2012-09-09 16:53:00
12:53 PM,82.0,57.9,44,30.08,10.0,NE,11.5,17.3,N/A,,Clear,50,2012-09-09 17:53:00
1:53 PM,82.9,57.9,42,30.07,10.0,NNE,12.7,18.4,N/A,,Clear,20,2012-09-09 18:53:00
2:53 PM,84.0,57.9,41,30.05,10.0,North,8.1,-,N/A,,Clear,360,2012-09-09 19:53:00
3:53 PM,84.9,57.9,40,30.04,10.0,North,8.1,-,N/A,,Clear,10,2012-09-09 20:53:00
4:53 PM,84.9,57.0,38,30.03,10.0,NE,9.2,-,N/A,,Clear,50,2012-09-09 21:53:00
5:53 PM,84.0,57.9,41,30.02,10.0,NNE,9.2,-,N/A,,Clear,30,2012-09-09 22:53:00
6:53 PM,80.1,57.9,47,30.03,10.0,NNE,6.9,-,N/A,,Clear,30,2012-09-09 23:53:00
7:53 PM,75.0,60.1,60,30.03,10.0,Calm,Calm,-,N/A,,Clear,0,2012-09-10 00:53:00
8:53 PM,70.0,63.0,78,30.05,10.0,Calm,Calm,-,N/A,,Clear,0,2012-09-10 01:53:00
9:53 PM,68.0,63.0,84,30.07,10.0,Calm,Calm,-,N/A,,Clear,0,2012-09-10 02:53:00
10:53 PM,69.1,62.1,78,30.08,10.0,NE,4.6,-,N/A,,Clear,50,2012-09-10 03:53:00
11:53 PM,66.9,62.1,84,30.08,10.0,ENE,3.5,-,N/A,,Clear,70,2012-09-10 04:53:00